User: anonymous   Login
Location: 5810 Zion Rd, Cleves, OH 45002, USA
(39.1922°N, 84.7113°W)
Time: 14:30:28
(UTC-05:00)
Language:

AIST 2D - Orbit

View from above orbital plane
View from above orbital plane
View from above satellite
View from above satellite

Ground track
Ground track

The orbit data is extracted from the following two-line orbital elements,

1 41465U 16026B   20023.49671995  .00000828  00000-0  27157-4 0  9996
2 41465  97.1691 277.7593 0013015  58.4622  43.0226 15.34311402209048
Epoch (UTC): 23 January 2020 11:55:16
Eccentricity: 0.0013015
inclination: 97.1691°
perigee height: 454 km
apogee height: 472 km
right ascension of ascending node: 277.7593°
argument of perigee: 58.4622°
revolutions per day: 15.34311402
mean anomaly at epoch: 43.0226°
orbit number at epoch: 20904

The dashed part of the orbit path shows where the satellite is in the earth's shadow,  

DLR